Time,TemperatureF,DewpointF,PressureIn,WindDirection,WindDirectionDegrees,WindSpeedMPH,WindSpeedGustMPH,Humidity,HourlyPrecipIn,Conditions,Clouds,dailyrainin,SoftwareType,DateUTC
2013-07-29 00:01:00,77.2,70.5,30.03,North,0,0.0,0.0,80,0.00,,SCT120,0.00,VWS V14.01,2013-07-29 04:01:00,
2013-07-29 00:02:00,77.2,70.5,30.03,North,0,0.0,0.0,80,0.00,,SCT120,0.00,VWS V14.01,2013-07-29 04:02:00,
2013-07-29 00:07:00,77.0,70.4,30.03,North,0,0.0,0.0,80,0.00,,SCT120,0.00,VWS V14.01,2013-07-29 04:07:00,
2013-07-29 00:12:00,77.0,70.4,30.03,North,0,0.0,0.0,80,0.00,,SCT120,0.00,VWS V14.01,2013-07-29 04:12:00,
2013-07-29 00:17:00,77.0,70.4,30.03,North,0,0.0,0.0,80,0.00,,SCT120,0.00,VWS V14.01,2013-07-29 04:17:00,
2013-07-29 00:22:00,77.2,70.9,30.03,North,0,0.0,0.0,81,0.00,,SCT120,0.00,VWS V14.01,2013-07-29 04:22:00,
2013-07-29 00:27:00,77.2,70.9,30.03,North,0,0.0,0.0,81,0.00,,SCT120,0.00,VWS V14.01,2013-07-29 04:27:00,
2013-07-29 00:32:00,77.2,70.9,30.03,North,0,0.0,0.0,81,0.00,,SCT120,0.00,VWS V14.01,2013-07-29 04:32:00,
2013-07-29 00:37:00,77.4,71.1,30.03,North,0,0.0,0.0,81,0.00,,SCT120,0.00,VWS V14.01,2013-07-29 04:37:00,
2013-07-29 00:42:00,77.2,70.9,30.03,North,0,0.0,0.0,81,0.00,,SCT120,0.00,VWS V14.01,2013-07-29 04:42:00,
2013-07-29 00:47:00,77.0,70.7,30.03,North,0,0.0,0.0,81,0.00,,SCT120,0.00,VWS V14.01,2013-07-29 04:47:00,
2013-07-29 00:52:00,76.8,70.9,30.03,North,0,0.0,0.0,82,0.00,,SCT120,0.00,VWS V14.01,2013-07-29 04:52:00,
2013-07-29 00:57:00,76.6,70.7,30.00,North,0,0.0,0.0,82,0.00,,SCT120,0.00,VWS V14.01,2013-07-29 04:57:00,
2013-07-29 01:02:00,76.8,70.9,30.00,North,0,0.0,0.0,82,0.00,,SCT120,0.00,VWS V14.01,2013-07-29 05:02:00,
2013-07-29 01:07:00,76.8,70.9,30.00,North,0,0.0,0.0,82,0.00,,SCT120,0.00,VWS V14.01,2013-07-29 05:07:00,
2013-07-29 01:12:00,76.6,70.7,30.00,North,0,0.0,0.0,82,0.00,,SCT120,0.00,VWS V14.01,2013-07-29 05:12:00,
2013-07-29 01:17:00,76.6,70.7,30.00,North,0,0.0,0.0,82,0.00,,SCT120,0.00,VWS V14.01,2013-07-29 05:17:00,
2013-07-29 01:22:00,76.5,70.6,30.00,North,0,0.0,0.0,82,0.00,,SCT120,0.00,VWS V14.01,2013-07-29 05:22:00,
2013-07-29 01:27:00,76.5,70.6,30.00,North,0,0.0,0.0,82,0.00,,SCT120,0.00,VWS V14.01,2013-07-29 05:27:00,
2013-07-29 01:32:00,76.3,70.4,30.00,North,0,0.0,0.0,82,0.00,,SCT120,0.00,VWS V14.01,2013-07-29 05:32:00,
2013-07-29 01:37:00,76.3,70.7,30.00,North,0,0.0,0.0,83,0.00,,SCT120,0.00,VWS V14.01,2013-07-29 05:37:00,
2013-07-29 01:42:00,76.3,70.7,30.00,North,0,0.0,0.0,83,0.00,,SCT120,0.00,VWS V14.01,2013-07-29 05:42:00,
2013-07-29 01:47:00,76.3,70.7,30.00,North,0,0.0,0.0,83,0.00,,SCT120,0.00,VWS V14.01,2013-07-29 05:47:00,
2013-07-29 01:52:00,76.3,70.7,30.00,North,0,0.0,0.0,83,0.00,,SCT120,0.00,VWS V14.01,2013-07-29 05:52:00,
2013-07-29 01:57:00,76.3,70.7,30.00,North,0,0.0,0.0,83,0.00,,SCT120,0.00,VWS V14.01,2013-07-29 05:57:00,
2013-07-29 02:02:00,76.1,70.6,30.00,North,0,0.0,0.0,83,0.00,,SCT120,0.00,VWS V14.01,2013-07-29 06:02:00,
2013-07-29 02:07:00,76.1,70.6,30.00,North,0,0.0,0.0,83,0.00,,SCT120,0.00,VWS V14.01,2013-07-29 06:07:00,
2013-07-29 02:12:00,76.1,70.6,30.00,North,0,0.0,0.0,83,0.00,,SCT120,0.00,VWS V14.01,2013-07-29 06:12:00,
2013-07-29 02:17:00,76.1,70.6,30.00,North,0,0.0,0.0,83,0.00,,SCT120,0.00,VWS V14.01,2013-07-29 06:17:00,
2013-07-29 02:22:00,76.1,70.6,30.00,North,0,0.0,0.0,83,0.00,,SCT120,0.00,VWS V14.01,2013-07-29 06:22:00,
2013-07-29 02:27:00,75.9,70.4,30.00,North,0,0.0,0.0,83,0.00,,SCT120,0.00,VWS V14.01,2013-07-29 06:27:00,
2013-07-29 02:32:00,75.9,70.7,30.00,North,0,0.0,0.0,84,0.00,,SCT120,0.00,VWS V14.01,2013-07-29 06:32:00,
2013-07-29 02:37:00,75.9,70.7,30.00,North,0,0.0,0.0,84,0.00,,SCT120,0.00,VWS V14.01,2013-07-29 06:37:00,
2013-07-29 02:42:00,75.9,70.7,30.00,North,0,0.0,0.0,84,0.00,,SCT120,0.00,VWS V14.01,2013-07-29 06:42:00,
2013-07-29 02:47:00,75.9,70.7,30.00,North,0,0.0,0.0,84,0.00,,SCT120,0.00,VWS V14.01,2013-07-29 06:47:00,
2013-07-29 02:52:00,75.9,70.7,30.00,North,0,0.0,0.0,84,0.00,,SCT120,0.00,VWS V14.01,2013-07-29 06:52:00,
2013-07-29 02:57:00,75.7,70.6,29.97,North,0,0.0,0.0,84,0.00,,SCT120,0.00,VWS V14.01,2013-07-29 06:57:00,
2013-07-29 03:02:00,75.7,70.6,29.97,North,0,0.0,0.0,84,0.00,,SCT120,0.00,VWS V14.01,2013-07-29 07:02:00,
2013-07-29 03:07:00,75.6,70.4,29.97,North,0,0.0,0.0,84,0.00,,SCT120,0.00,VWS V14.01,2013-07-29 07:07:00,
2013-07-29 03:12:00,75.6,70.4,29.97,North,0,0.0,0.0,84,0.00,,SCT120,0.00,VWS V14.01,2013-07-29 07:12:00,
2013-07-29 03:17:00,75.6,70.4,29.97,North,0,0.0,0.0,84,0.00,,SCT120,0.00,VWS V14.01,2013-07-29 07:17:00,
2013-07-29 03:22:00,75.4,70.2,29.97,North,0,0.0,0.0,84,0.00,,SCT120,0.00,VWS V14.01,2013-07-29 07:22:00,
2013-07-29 03:27:00,75.4,70.6,29.97,North,0,0.0,0.0,85,0.00,,SCT120,0.00,VWS V14.01,2013-07-29 07:27:00,
2013-07-29 03:32:00,75.4,70.6,29.97,North,0,0.0,0.0,85,0.00,,SCT120,0.00,VWS V14.01,2013-07-29 07:32:00,
2013-07-29 03:37:00,75.4,70.6,29.97,North,0,0.0,0.0,85,0.00,,SCT120,0.00,VWS V14.01,2013-07-29 07:37:00,
2013-07-29 03:42:00,75.2,70.4,29.97,North,0,0.0,0.0,85,0.00,,SCT120,0.00,VWS V14.01,2013-07-29 07:42:00,
2013-07-29 03:47:00,75.2,70.4,29.97,North,0,0.0,0.0,85,0.00,,SCT120,0.00,VWS V14.01,2013-07-29 07:47:00,
2013-07-29 03:52:00,75.0,70.2,29.97,North,0,0.0,0.0,85,0.00,,SCT120,0.00,VWS V14.01,2013-07-29 07:52:00,
2013-07-29 03:57:00,75.0,70.2,29.97,North,0,0.0,0.0,85,0.00,,SCT120,0.00,VWS V14.01,2013-07-29 07:57:00,
2013-07-29 04:02:00,75.0,70.2,29.97,North,0,0.0,0.0,85,0.00,,SCT120,0.00,VWS V14.01,2013-07-29 08:02:00,
2013-07-29 04:07:00,75.0,70.6,29.97,North,0,0.0,0.0,86,0.00,,SCT120,0.00,VWS V14.01,2013-07-29 08:07:00,
2013-07-29 04:12:00,75.0,70.6,29.97,North,0,0.0,0.0,86,0.00,,SCT120,0.00,VWS V14.01,2013-07-29 08:12:00,
2013-07-29 04:17:00,75.0,70.6,29.97,North,0,0.0,0.0,86,0.00,,SCT120,0.00,VWS V14.01,2013-07-29 08:17:00,
2013-07-29 04:22:00,75.0,70.6,29.97,North,0,0.0,0.0,86,0.00,,SCT120,0.00,VWS V14.01,2013-07-29 08:22:00,
2013-07-29 04:27:00,74.8,70.4,29.97,North,0,0.0,0.0,86,0.00,,SCT120,0.00,VWS V14.01,2013-07-29 08:27:00,
2013-07-29 04:32:00,74.7,70.2,29.97,North,0,0.0,0.0,86,0.00,,SCT120,0.00,VWS V14.01,2013-07-29 08:32:00,
2013-07-29 04:37:00,74.7,70.2,29.97,North,0,0.0,0.0,86,0.00,,SCT120,0.00,VWS V14.01,2013-07-29 08:37:00,
2013-07-29 04:42:00,74.8,70.4,29.97,North,0,0.0,0.0,86,0.00,,SCT120,0.00,VWS V14.01,2013-07-29 08:42:00,
2013-07-29 04:47:00,75.0,70.6,29.97,North,0,0.0,0.0,86,0.00,,SCT120,0.00,VWS V14.01,2013-07-29 08:47:00,
2013-07-29 04:52:00,75.0,70.6,29.97,North,0,0.0,0.0,86,0.00,,SCT120,0.00,VWS V14.01,2013-07-29 08:52:00,
2013-07-29 04:57:00,74.8,70.4,29.97,North,0,0.0,0.0,86,0.00,,SCT120,0.00,VWS V14.01,2013-07-29 08:57:00,
2013-07-29 05:02:00,75.0,70.6,29.97,North,0,0.0,0.0,86,0.00,,SCT120,0.00,VWS V14.01,2013-07-29 09:02:00,
2013-07-29 05:07:00,75.0,70.9,29.97,North,0,0.0,0.0,87,0.00,,SCT120,0.00,VWS V14.01,2013-07-29 09:07:00,
2013-07-29 05:12:00,75.2,70.7,30.00,North,0,0.0,0.0,86,0.00,,SCT120,0.00,VWS V14.01,2013-07-29 09:12:00,
2013-07-29 05:17:00,75.2,70.7,30.00,North,0,0.0,0.0,86,0.00,,SCT120,0.00,VWS V14.01,2013-07-29 09:17:00,
2013-07-29 05:22:00,75.2,70.7,30.00,North,0,0.0,0.0,86,0.00,,SCT120,0.00,VWS V14.01,2013-07-29 09:22:00,
2013-07-29 05:27:00,75.2,70.7,30.00,North,0,0.0,0.0,86,0.00,,SCT120,0.00,VWS V14.01,2013-07-29 09:27:00,
2013-07-29 05:32:00,75.2,71.1,30.00,North,0,0.0,0.0,87,0.00,,SCT120,0.00,VWS V14.01,2013-07-29 09:32:00,
2013-07-29 05:37:00,75.2,70.7,30.00,North,0,0.0,0.0,86,0.00,,SCT120,0.00,VWS V14.01,2013-07-29 09:37:00,
2013-07-29 05:42:00,75.2,70.7,30.00,North,0,0.0,0.0,86,0.00,,SCT120,0.00,VWS V14.01,2013-07-29 09:42:00,
2013-07-29 05:47:00,75.0,70.9,30.00,North,0,0.0,0.0,87,0.00,,SCT120,0.00,VWS V14.01,2013-07-29 09:47:00,
2013-07-29 05:52:00,74.8,70.7,30.00,North,0,0.0,0.0,87,0.00,,SCT120,0.00,VWS V14.01,2013-07-29 09:52:00,
2013-07-29 05:58:00,74.7,70.5,30.00,North,0,0.0,0.0,87,0.00,,SCT120,0.00,VWS V14.01,2013-07-29 09:58:00,
2013-07-29 06:02:00,74.7,70.5,30.00,North,0,0.0,0.0,87,0.00,,SCT120,0.00,VWS V14.01,2013-07-29 10:02:00,
2013-07-29 06:08:00,74.7,70.2,30.00,North,0,0.0,0.0,86,0.00,,SCT120,0.00,VWS V14.01,2013-07-29 10:08:00,
2013-07-29 06:13:00,74.7,70.2,30.00,North,0,0.0,0.0,86,0.00,,SCT120,0.00,VWS V14.01,2013-07-29 10:13:00,
2013-07-29 06:18:00,74.7,70.5,30.00,North,0,0.0,0.0,87,0.00,,SCT120,0.00,VWS V14.01,2013-07-29 10:18:00,
2013-07-29 06:23:00,74.8,70.7,30.00,North,0,0.0,0.0,87,0.00,,SCT120,0.00,VWS V14.01,2013-07-29 10:23:00,
2013-07-29 06:28:00,74.8,70.7,30.00,North,0,0.0,0.0,87,0.00,,SCT120,0.00,VWS V14.01,2013-07-29 10:28:00,
2013-07-29 06:33:00,75.0,70.9,30.00,North,0,0.0,0.0,87,0.00,,SCT120,0.00,VWS V14.01,2013-07-29 10:33:00,
2013-07-29 06:38:00,75.0,70.9,30.00,North,0,0.0,0.0,87,0.00,,SCT120,0.00,VWS V14.01,2013-07-29 10:38:00,
2013-07-29 06:43:00,75.2,70.7,30.03,North,0,0.0,0.0,86,0.00,,SCT120,0.00,VWS V14.01,2013-07-29 10:43:00,
2013-07-29 06:48:00,75.4,71.2,30.03,North,0,0.0,0.0,87,0.00,,SCT120,0.00,VWS V14.01,2013-07-29 10:48:00,
2013-07-29 06:53:00,75.7,71.6,30.03,North,0,0.0,0.0,87,0.00,,SCT120,0.00,VWS V14.01,2013-07-29 10:53:00,
2013-07-29 06:58:00,76.1,71.9,30.00,North,0,0.0,0.0,87,0.00,,SCT120,0.00,VWS V14.01,2013-07-29 10:58:00,
2013-07-29 07:03:00,76.5,72.3,30.00,North,0,0.0,0.0,87,0.00,,SCT120,0.00,VWS V14.01,2013-07-29 11:03:00,
2013-07-29 07:08:00,77.0,72.8,30.00,North,0,0.0,0.0,87,0.00,,SCT120,0.00,VWS V14.01,2013-07-29 11:08:00,
2013-07-29 07:13:00,77.4,73.2,30.03,North,0,0.0,0.0,87,0.00,,SCT120,0.00,VWS V14.01,2013-07-29 11:13:00,
2013-07-29 07:18:00,77.5,73.0,30.03,North,0,0.0,0.0,86,0.00,,SCT120,0.00,VWS V14.01,2013-07-29 11:18:00,
2013-07-29 07:23:00,77.7,72.5,30.03,North,0,0.0,0.0,84,0.00,,SCT120,0.00,VWS V14.01,2013-07-29 11:23:00,
2013-07-29 07:28:00,78.1,72.1,30.03,North,0,0.0,0.0,82,0.00,,SCT120,0.00,VWS V14.01,2013-07-29 11:28:00,
2013-07-29 07:33:00,78.4,71.4,30.03,North,0,0.0,0.0,79,0.00,,SCT120,0.00,VWS V14.01,2013-07-29 11:33:00,
2013-07-29 07:38:00,78.6,70.8,30.03,North,0,0.0,0.0,77,0.00,,SCT120,0.00,VWS V14.01,2013-07-29 11:38:00,
2013-07-29 07:43:00,79.2,70.9,30.03,North,0,0.0,0.0,76,0.00,,SCT120,0.00,VWS V14.01,2013-07-29 11:43:00,
2013-07-29 07:48:00,79.5,71.3,30.03,North,0,0.0,0.0,76,0.00,,SCT120,0.00,VWS V14.01,2013-07-29 11:48:00,
2013-07-29 07:54:00,80.1,71.4,30.03,North,0,0.0,0.0,75,0.00,,SCT120,0.00,VWS V14.01,2013-07-29 11:54:00,
2013-07-29 07:59:00,80.1,71.0,30.03,North,0,0.0,0.0,74,0.00,,SCT120,0.00,VWS V14.01,2013-07-29 11:59:00,
2013-07-29 08:04:00,80.6,71.2,30.03,North,0,0.0,0.0,73,0.00,,SCT120,0.00,VWS V14.01,2013-07-29 12:04:00,
2013-07-29 08:09:00,80.8,69.7,30.03,North,0,0.0,0.0,69,0.00,,SCT120,0.00,VWS V14.01,2013-07-29 12:09:00,
2013-07-29 08:14:00,81.1,69.6,30.03,North,0,0.0,0.0,68,0.00,,SCT120,0.00,VWS V14.01,2013-07-29 12:14:00,
2013-07-29 08:19:00,81.5,69.5,30.03,North,0,0.0,0.0,67,0.00,,SCT120,0.00,VWS V14.01,2013-07-29 12:19:00,
2013-07-29 08:24:00,82.0,68.7,30.03,North,0,0.0,0.0,64,0.00,,SCT120,0.00,VWS V14.01,2013-07-29 12:24:00,
2013-07-29 08:29:00,82.4,68.6,30.03,North,0,0.0,0.0,63,0.00,,SCT120,0.00,VWS V14.01,2013-07-29 12:29:00,
2013-07-29 08:34:00,82.8,67.9,30.03,North,0,0.0,0.0,61,0.00,,SCT120,0.00,VWS V14.01,2013-07-29 12:34:00,
2013-07-29 08:39:00,83.1,67.8,30.03,North,0,0.0,0.0,60,0.00,,SCT120,0.00,VWS V14.01,2013-07-29 12:39:00,
2013-07-29 08:44:00,83.3,66.0,30.03,North,0,0.0,0.0,56,0.00,,SCT120,0.00,VWS V14.01,2013-07-29 12:44:00,
2013-07-29 08:49:00,83.8,66.0,30.03,North,0,0.0,0.0,55,0.00,,SCT120,0.00,VWS V14.01,2013-07-29 12:49:00,
2013-07-29 08:54:00,84.4,65.4,30.03,North,0,0.0,0.0,53,0.00,,SCT120,0.00,VWS V14.01,2013-07-29 12:54:00,
2013-07-29 08:59:00,84.9,65.3,30.03,North,0,0.0,0.0,52,0.00,,SCT120,0.00,VWS V14.01,2013-07-29 12:59:00,
2013-07-29 09:04:00,85.1,63.8,30.03,North,0,0.0,0.0,49,0.00,,SCT120,0.00,VWS V14.01,2013-07-29 13:04:00,
2013-07-29 09:09:00,85.3,62.8,30.03,North,0,0.0,0.0,47,0.00,,SCT120,0.00,VWS V14.01,2013-07-29 13:09:00,
2013-07-29 09:14:00,85.5,61.7,30.03,North,0,0.0,0.0,45,0.00,,SCT120,0.00,VWS V14.01,2013-07-29 13:14:00,
2013-07-29 09:19:00,86.2,63.6,30.03,North,0,0.0,0.0,47,0.00,,SCT120,0.00,VWS V14.01,2013-07-29 13:19:00,
2013-07-29 09:24:00,86.7,62.9,30.03,North,0,0.0,0.0,45,0.00,,SCT120,0.00,VWS V14.01,2013-07-29 13:24:00,
2013-07-29 09:29:00,86.9,61.1,30.03,North,0,0.0,0.0,42,0.00,,SCT120,0.00,VWS V14.01,2013-07-29 13:29:00,
2013-07-29 09:34:00,87.3,60.0,30.03,North,0,0.0,0.0,40,0.00,,SCT120,0.00,VWS V14.01,2013-07-29 13:34:00,
2013-07-29 09:39:00,87.4,58.7,30.03,North,0,0.0,0.0,38,0.00,,SCT120,0.00,VWS V14.01,2013-07-29 13:39:00,
2013-07-29 09:44:00,87.8,56.0,30.03,North,0,0.0,0.0,34,0.00,,SCT120,0.00,VWS V14.01,2013-07-29 13:44:00,
2013-07-29 09:49:00,88.2,53.7,30.03,North,0,0.0,0.0,31,0.00,,SCT120,0.00,VWS V14.01,2013-07-29 13:49:00,
2013-07-29 09:54:00,88.2,51.9,30.03,North,0,0.0,0.0,29,0.00,,SCT120,0.00,VWS V14.01,2013-07-29 13:54:00,
2013-07-29 09:59:00,88.9,52.5,30.03,North,0,0.0,0.0,29,0.00,,SCT120,0.00,VWS V14.01,2013-07-29 13:59:00,
2013-07-29 10:04:00,89.2,46.6,30.03,North,0,0.0,0.0,23,0.00,,SCT120,0.00,VWS V14.01,2013-07-29 14:04:00,
2013-07-29 10:09:00,89.4,45.6,30.03,North,0,0.0,0.0,22,0.00,,SCT120,0.00,VWS V14.01,2013-07-29 14:09:00,
2013-07-29 10:15:00,90.0,43.5,30.03,North,0,0.0,0.0,20,0.00,,SCT120,0.00,VWS V14.01,2013-07-29 14:15:00,
2013-07-29 10:20:00,90.5,42.7,30.03,North,0,0.0,0.0,19,0.00,,SCT120,0.00,VWS V14.01,2013-07-29 14:20:00,
2013-07-29 10:25:00,90.7,41.4,30.03,North,0,0.0,0.0,18,0.00,,SCT120,0.00,VWS V14.01,2013-07-29 14:25:00,
2013-07-29 10:30:00,91.0,41.7,30.03,North,0,0.0,0.0,18,0.00,,SCT120,0.00,VWS V14.01,2013-07-29 14:30:00,
2013-07-29 10:36:00,91.2,27.1,30.03,North,0,0.0,0.0,10,0.00,,SCT120,0.00,VWS V14.01,2013-07-29 14:36:00,
2013-07-29 10:41:00,91.2,31.6,30.03,North,0,0.0,0.0,12,0.00,,SCT120,0.00,VWS V14.01,2013-07-29 14:41:00,
2013-07-29 10:46:00,91.2,31.6,30.03,North,0,0.0,0.0,12,0.00,,SCT120,0.00,VWS V14.01,2013-07-29 14:46:00,
2013-07-29 10:51:00,91.6,24.8,30.03,North,0,0.0,0.0,9,0.00,,SCT120,0.00,VWS V14.01,2013-07-29 14:51:00,
2013-07-29 10:56:00,91.9,25.1,30.03,North,0,0.0,0.0,9,0.00,,SCT120,0.00,VWS V14.01,2013-07-29 14:56:00,
2013-07-29 11:01:00,92.3,25.4,30.03,North,0,0.0,0.0,9,0.00,,SCT120,0.00,VWS V14.01,2013-07-29 15:01:00,
2013-07-29 11:06:00,92.5,19.6,30.03,North,0,0.0,0.0,7,0.00,,SCT120,0.00,VWS V14.01,2013-07-29 15:06:00,
2013-07-29 11:11:00,92.5,19.6,30.00,North,0,0.0,0.0,7,0.00,,SCT120,0.00,VWS V14.01,2013-07-29 15:11:00,
2013-07-29 11:16:00,93.2,16.5,30.00,North,0,0.0,0.0,6,0.00,,SCT120,0.00,VWS V14.01,2013-07-29 15:16:00,
2013-07-29 11:21:00,93.4,16.6,30.00,North,0,0.0,0.0,6,0.00,,SCT120,0.00,VWS V14.01,2013-07-29 15:21:00,
2013-07-29 11:26:00,93.4,16.6,30.00,North,0,0.0,0.0,6,0.00,,SCT120,0.00,VWS V14.01,2013-07-29 15:26:00,
2013-07-29 11:32:00,93.4,16.6,30.00,North,0,0.0,0.0,6,0.00,,SCT120,0.00,VWS V14.01,2013-07-29 15:32:00,
2013-07-29 11:37:00,94.1,17.1,30.00,North,0,0.0,0.0,6,0.00,,SCT120,0.00,VWS V14.01,2013-07-29 15:37:00,
2013-07-29 11:42:00,94.3,17.3,30.00,North,0,0.0,0.0,6,0.00,,SCT120,0.00,VWS V14.01,2013-07-29 15:42:00,
2013-07-29 11:47:00,94.1,17.1,30.00,North,0,0.0,0.0,6,0.00,,SCT120,0.00,VWS V14.01,2013-07-29 15:47:00,
2013-07-29 11:52:00,93.9,17.0,30.00,North,0,0.0,0.0,6,0.00,,SCT120,0.00,VWS V14.01,2013-07-29 15:52:00,
2013-07-29 11:58:00,94.1,17.1,30.03,North,0,0.0,0.0,6,0.00,,SCT120,0.00,VWS V14.01,2013-07-29 15:58:00,
2013-07-29 12:03:00,95.0,17.8,30.03,North,0,0.0,0.0,6,0.00,,SCT120,0.00,VWS V14.01,2013-07-29 16:03:00,
2013-07-29 12:08:00,95.5,18.2,30.03,North,0,0.0,0.0,6,0.00,,SCT120,0.00,VWS V14.01,2013-07-29 16:08:00,
2013-07-29 12:13:00,95.9,18.4,30.03,North,0,0.0,0.0,6,0.00,,SCT120,0.00,VWS V14.01,2013-07-29 16:13:00,
2013-07-29 12:18:00,95.9,18.4,30.03,North,0,0.0,0.0,6,0.00,,SCT120,0.00,VWS V14.01,2013-07-29 16:18:00,
2013-07-29 12:23:00,95.5,18.2,30.03,North,0,0.0,0.0,6,0.00,,SCT120,0.00,VWS V14.01,2013-07-29 16:23:00,
2013-07-29 12:28:00,96.1,18.5,30.03,North,0,0.0,0.0,6,0.00,,SCT120,0.00,VWS V14.01,2013-07-29 16:28:00,
2013-07-29 12:33:00,96.1,18.5,30.03,North,0,0.0,0.0,6,0.00,,SCT120,0.00,VWS V14.01,2013-07-29 16:33:00,
2013-07-29 12:38:00,96.8,19.1,30.03,North,0,0.0,0.0,6,0.00,,SCT120,0.00,VWS V14.01,2013-07-29 16:38:00,
2013-07-29 12:43:00,97.3,19.5,30.03,North,0,0.0,0.0,6,0.00,,SCT120,0.00,VWS V14.01,2013-07-29 16:43:00,
2013-07-29 12:49:00,97.5,19.6,30.03,North,0,0.0,0.0,6,0.00,,SCT120,0.00,VWS V14.01,2013-07-29 16:49:00,
2013-07-29 12:54:00,97.7,19.7,30.03,North,0,0.0,0.0,6,0.00,,SCT120,0.00,VWS V14.01,2013-07-29 16:54:00,
2013-07-29 12:59:00,97.9,19.8,30.03,North,0,0.0,0.0,6,0.00,,SCT120,0.00,VWS V14.01,2013-07-29 16:59:00,
2013-07-29 13:04:00,97.3,19.5,30.03,North,0,0.0,0.0,6,0.00,,SCT120,0.00,VWS V14.01,2013-07-29 17:04:00,
2013-07-29 13:09:00,96.6,18.9,30.03,North,0,0.0,0.0,6,0.00,,SCT120,0.00,VWS V14.01,2013-07-29 17:09:00,
2013-07-29 13:14:00,97.0,19.2,30.00,North,0,0.0,0.0,6,0.00,,SCT120,0.00,VWS V14.01,2013-07-29 17:14:00,
2013-07-29 13:19:00,97.3,19.5,30.00,North,0,0.0,0.0,6,0.00,,SCT120,0.00,VWS V14.01,2013-07-29 17:19:00,
2013-07-29 13:24:00,97.7,19.7,30.00,North,0,0.0,0.0,6,0.00,,SCT120,0.00,VWS V14.01,2013-07-29 17:24:00,
2013-07-29 13:29:00,97.9,19.8,30.00,North,0,0.0,0.0,6,0.00,,SCT120,0.00,VWS V14.01,2013-07-29 17:29:00,
2013-07-29 13:34:00,97.9,19.8,30.00,North,0,0.0,0.0,6,0.00,,SCT120,0.00,VWS V14.01,2013-07-29 17:34:00,
2013-07-29 13:40:00,97.7,19.7,30.00,North,0,0.0,0.0,6,0.00,,SCT120,0.00,VWS V14.01,2013-07-29 17:40:00,
2013-07-29 13:45:00,98.1,20.0,30.00,North,0,0.0,0.0,6,0.00,,SCT120,0.00,VWS V14.01,2013-07-29 17:45:00,
2013-07-29 13:50:00,97.7,19.7,30.00,North,0,0.0,0.0,6,0.00,,SCT120,0.00,VWS V14.01,2013-07-29 17:50:00,
2013-07-29 13:55:00,98.1,20.0,30.00,North,0,0.0,0.0,6,0.00,,SCT120,0.00,VWS V14.01,2013-07-29 17:55:00,
2013-07-29 14:00:00,98.1,20.0,30.00,North,0,0.0,0.0,6,0.00,,SCT120,0.00,VWS V14.01,2013-07-29 18:00:00,
2013-07-29 14:05:00,98.8,16.2,30.00,North,0,0.0,0.0,5,0.00,,SCT120,0.00,VWS V14.01,2013-07-29 18:05:00,
2013-07-29 14:10:00,99.0,16.4,30.00,North,0,0.0,0.0,5,0.00,,SCT120,0.00,VWS V14.01,2013-07-29 18:10:00,
2013-07-29 14:16:00,98.8,16.2,30.00,North,0,0.0,0.0,5,0.00,,SCT120,0.00,VWS V14.01,2013-07-29 18:16:00,
2013-07-29 14:21:00,99.3,16.6,30.00,North,0,0.0,0.0,5,0.00,,SCT120,0.00,VWS V14.01,2013-07-29 18:21:00,
2013-07-29 14:26:00,99.9,17.0,30.00,North,0,0.0,0.0,5,0.00,,SCT120,0.00,VWS V14.01,2013-07-29 18:26:00,
2013-07-29 14:31:00,100.0,17.1,30.00,North,0,0.0,0.0,5,0.00,,SCT120,0.00,VWS V14.01,2013-07-29 18:31:00,
2013-07-29 14:36:00,100.0,17.1,30.00,North,0,0.0,0.0,5,0.00,,SCT120,0.00,VWS V14.01,2013-07-29 18:36:00,
2013-07-29 14:41:00,99.3,16.6,30.00,North,0,0.0,0.0,5,0.00,,SCT120,0.00,VWS V14.01,2013-07-29 18:41:00,
2013-07-29 14:46:00,99.5,16.7,30.00,North,0,0.0,0.0,5,0.00,,SCT120,0.00,VWS V14.01,2013-07-29 18:46:00,
2013-07-29 14:51:00,99.9,17.0,30.00,North,0,0.0,0.0,5,0.00,,SCT120,0.00,VWS V14.01,2013-07-29 18:51:00,
2013-07-29 14:56:00,99.1,16.5,30.00,North,0,0.0,0.0,5,0.00,,SCT120,0.00,VWS V14.01,2013-07-29 18:56:00,
2013-07-29 15:01:00,98.4,20.2,30.00,North,0,0.0,0.0,6,0.00,,SCT120,0.00,VWS V14.01,2013-07-29 19:01:00,
2013-07-29 15:07:00,99.1,16.5,30.00,North,0,0.0,0.0,5,0.00,,SCT120,0.00,VWS V14.01,2013-07-29 19:07:00,
2013-07-29 15:12:00,99.3,16.6,30.00,North,0,0.0,0.0,5,0.00,,SCT120,0.00,VWS V14.01,2013-07-29 19:12:00,
2013-07-29 15:17:00,99.1,16.5,30.00,North,0,0.0,0.0,5,0.00,,SCT120,0.00,VWS V14.01,2013-07-29 19:17:00,
2013-07-29 15:22:00,99.7,16.9,30.00,North,0,0.0,0.0,5,0.00,,SCT120,0.00,VWS V14.01,2013-07-29 19:22:00,
2013-07-29 15:27:00,99.9,17.0,29.97,North,0,0.0,0.0,5,0.00,,SCT120,0.00,VWS V14.01,2013-07-29 19:27:00,
2013-07-29 15:32:00,99.7,16.9,29.97,North,0,0.0,0.0,5,0.00,,SCT120,0.00,VWS V14.01,2013-07-29 19:32:00,
2013-07-29 15:37:00,99.1,16.5,29.97,North,0,0.0,0.0,5,0.00,,SCT120,0.00,VWS V14.01,2013-07-29 19:37:00,
2013-07-29 15:42:00,99.1,16.5,29.97,North,0,0.0,0.0,5,0.00,,SCT120,0.00,VWS V14.01,2013-07-29 19:42:00,
2013-07-29 15:47:00,98.6,16.1,29.97,North,0,0.0,0.0,5,0.00,,SCT120,0.00,VWS V14.01,2013-07-29 19:47:00,
2013-07-29 15:52:00,98.4,20.2,29.97,North,0,0.0,0.0,6,0.00,,SCT120,0.00,VWS V14.01,2013-07-29 19:52:00,
2013-07-29 15:57:00,98.2,20.1,29.97,North,0,0.0,0.0,6,0.00,,SCT120,0.00,VWS V14.01,2013-07-29 19:57:00,
2013-07-29 16:02:00,98.4,20.2,29.97,North,0,0.0,0.0,6,0.00,,SCT120,0.00,VWS V14.01,2013-07-29 20:02:00,
2013-07-29 16:07:00,98.4,20.2,29.97,North,0,0.0,0.0,6,0.00,,SCT120,0.00,VWS V14.01,2013-07-29 20:07:00,
2013-07-29 16:12:00,97.7,19.7,29.97,North,0,0.0,0.0,6,0.00,,SCT120,0.00,VWS V14.01,2013-07-29 20:12:00,
2013-07-29 16:17:00,97.5,19.6,29.97,North,0,0.0,0.0,6,0.00,,SCT120,0.00,VWS V14.01,2013-07-29 20:17:00,
2013-07-29 16:22:00,97.0,19.2,29.97,North,0,0.0,0.0,6,0.00,,SCT120,0.00,VWS V14.01,2013-07-29 20:22:00,
2013-07-29 16:27:00,96.8,19.1,29.97,North,0,0.0,0.0,6,0.00,,SCT120,0.00,VWS V14.01,2013-07-29 20:27:00,
2013-07-29 16:32:00,96.8,19.1,29.97,North,0,0.0,0.0,6,0.00,,SCT120,0.00,VWS V14.01,2013-07-29 20:32:00,
2013-07-29 16:38:00,97.0,19.2,29.97,North,0,0.0,0.0,6,0.00,,SCT120,0.00,VWS V14.01,2013-07-29 20:38:00,
2013-07-29 16:43:00,97.0,19.2,30.00,North,0,0.0,0.0,6,0.00,,SCT120,0.00,VWS V14.01,2013-07-29 20:43:00,
2013-07-29 16:48:00,97.0,19.2,30.00,North,0,0.0,0.0,6,0.00,,SCT120,0.00,VWS V14.01,2013-07-29 20:48:00,
2013-07-29 16:53:00,97.0,19.2,30.00,North,0,0.0,0.0,6,0.00,,SCT120,0.00,VWS V14.01,2013-07-29 20:53:00,
2013-07-29 16:58:00,97.0,19.2,29.97,North,0,0.0,0.0,6,0.00,,SCT120,0.00,VWS V14.01,2013-07-29 20:58:00,
2013-07-29 17:03:00,97.5,19.6,29.97,North,0,0.0,0.0,6,0.00,,SCT120,0.00,VWS V14.01,2013-07-29 21:03:00,
2013-07-29 17:08:00,97.2,19.3,29.97,North,0,0.0,0.0,6,0.00,,SCT120,0.00,VWS V14.01,2013-07-29 21:08:00,
2013-07-29 17:13:00,97.3,19.5,29.97,North,0,0.0,0.0,6,0.00,,SCT120,0.00,VWS V14.01,2013-07-29 21:13:00,
2013-07-29 17:18:00,97.3,19.5,29.97,North,0,0.0,0.0,6,0.00,,SCT120,0.00,VWS V14.01,2013-07-29 21:18:00,
2013-07-29 17:23:00,97.3,19.5,29.97,North,0,0.0,0.0,6,0.00,,SCT120,0.00,VWS V14.01,2013-07-29 21:23:00,
2013-07-29 17:28:00,97.0,19.2,29.97,North,0,0.0,0.0,6,0.00,,SCT120,0.00,VWS V14.01,2013-07-29 21:28:00,
2013-07-29 17:33:00,96.4,18.8,29.97,North,0,0.0,0.0,6,0.00,,SCT120,0.00,VWS V14.01,2013-07-29 21:33:00,
2013-07-29 17:38:00,95.7,18.3,29.97,North,0,0.0,0.0,6,0.00,,SCT120,0.00,VWS V14.01,2013-07-29 21:38:00,
2013-07-29 17:43:00,95.4,18.0,29.97,North,0,0.0,0.0,6,0.00,,SCT120,0.00,VWS V14.01,2013-07-29 21:43:00,
2013-07-29 17:48:00,95.2,17.9,29.97,North,0,0.0,0.0,6,0.00,,SCT120,0.00,VWS V14.01,2013-07-29 21:48:00,
2013-07-29 17:53:00,95.2,27.5,29.97,North,0,0.0,0.0,9,0.00,,SCT120,0.00,VWS V14.01,2013-07-29 21:53:00,
2013-07-29 17:59:00,94.8,17.7,29.97,North,0,0.0,0.0,6,0.00,,SCT120,0.00,VWS V14.01,2013-07-29 21:59:00,
2013-07-29 18:04:00,94.8,27.3,29.97,North,0,0.0,0.0,9,0.00,,SCT120,0.00,VWS V14.01,2013-07-29 22:04:00,
2013-07-29 18:09:00,94.6,27.1,29.97,North,0,0.0,0.0,9,0.00,,SCT120,0.00,VWS V14.01,2013-07-29 22:09:00,
2013-07-29 18:14:00,94.6,27.1,29.97,North,0,0.0,0.0,9,0.00,,SCT120,0.00,VWS V14.01,2013-07-29 22:14:00,
2013-07-29 18:19:00,95.7,27.9,29.97,North,0,0.0,0.0,9,0.00,,SCT120,0.00,VWS V14.01,2013-07-29 22:19:00,
2013-07-29 18:24:00,96.1,18.5,29.97,North,0,0.0,0.0,6,0.00,,SCT120,0.00,VWS V14.01,2013-07-29 22:24:00,
2013-07-29 18:29:00,96.6,18.9,30.00,North,0,0.0,0.0,6,0.00,,SCT120,0.00,VWS V14.01,2013-07-29 22:29:00,
2013-07-29 18:34:00,96.6,18.9,30.00,North,0,0.0,0.0,6,0.00,,SCT120,0.00,VWS V14.01,2013-07-29 22:34:00,
2013-07-29 18:39:00,95.4,27.7,30.00,North,0,0.0,0.0,9,0.00,,SCT120,0.00,VWS V14.01,2013-07-29 22:39:00,
2013-07-29 18:44:00,94.1,31.6,30.00,North,0,0.0,0.0,11,0.00,,SCT120,0.00,VWS V14.01,2013-07-29 22:44:00,
2013-07-29 18:49:00,93.2,37.0,30.00,North,0,0.0,0.0,14,0.00,,SCT120,0.00,VWS V14.01,2013-07-29 22:49:00,
2013-07-29 18:54:00,92.7,41.5,30.00,North,0,0.0,0.0,17,0.00,,SCT120,0.00,VWS V14.01,2013-07-29 22:54:00,
2013-07-29 19:00:00,91.9,42.4,30.00,North,0,0.0,0.0,18,0.00,,SCT120,0.00,VWS V14.01,2013-07-29 23:00:00,
2013-07-29 19:05:00,91.9,42.4,30.00,North,0,0.0,0.0,18,0.00,,SCT120,0.00,VWS V14.01,2013-07-29 23:05:00,
2013-07-29 19:10:00,91.6,42.1,30.00,North,0,0.0,0.0,18,0.00,,SCT120,0.00,VWS V14.01,2013-07-29 23:10:00,
2013-07-29 19:15:00,91.2,43.2,30.00,North,0,0.0,0.0,19,0.00,,SCT120,0.00,VWS V14.01,2013-07-29 23:15:00,
2013-07-29 19:20:00,91.0,44.4,30.00,North,0,0.0,0.0,20,0.00,,SCT120,0.00,VWS V14.01,2013-07-29 23:20:00,
2013-07-29 19:25:00,90.7,44.1,30.00,North,0,0.0,0.0,20,0.00,,SCT120,0.00,VWS V14.01,2013-07-29 23:25:00,
2013-07-29 19:30:00,90.5,45.3,30.00,North,0,0.0,0.0,21,0.00,,SCT120,0.00,VWS V14.01,2013-07-29 23:30:00,
2013-07-29 19:35:00,90.3,46.3,30.00,North,0,0.0,0.0,22,0.00,,SCT120,0.00,VWS V14.01,2013-07-29 23:35:00,
2013-07-29 19:40:00,90.1,46.2,30.03,North,0,0.0,0.0,22,0.00,,SCT120,0.00,VWS V14.01,2013-07-29 23:40:00,
2013-07-29 19:45:00,90.0,47.2,30.03,North,0,0.0,0.0,23,0.00,,SCT120,0.00,VWS V14.01,2013-07-29 23:45:00,
2013-07-29 19:50:00,89.8,49.3,30.03,North,0,0.0,0.0,25,0.00,,SCT120,0.00,VWS V14.01,2013-07-29 23:50:00,
2013-07-29 19:55:00,89.2,50.9,30.03,North,0,0.0,0.0,27,0.00,,SCT120,0.00,VWS V14.01,2013-07-29 23:55:00,
2013-07-29 20:00:00,88.9,51.6,30.03,North,0,0.0,0.0,28,0.00,,SCT120,0.00,VWS V14.01,2013-07-30 00:00:00,
2013-07-29 20:05:00,88.3,51.1,30.03,North,0,0.0,0.0,28,0.00,,SCT120,0.00,VWS V14.01,2013-07-30 00:05:00,
2013-07-29 20:11:00,88.0,51.8,30.03,North,0,0.0,0.0,29,0.00,,SCT120,0.00,VWS V14.01,2013-07-30 00:11:00,
2013-07-29 20:16:00,87.8,51.6,30.03,North,0,0.0,0.0,29,0.00,,SCT120,0.00,VWS V14.01,2013-07-30 00:16:00,
2013-07-29 20:21:00,87.8,51.6,30.03,North,0,0.0,0.0,29,0.00,,SCT120,0.00,VWS V14.01,2013-07-30 00:21:00,
2013-07-29 20:26:00,87.8,51.6,30.03,North,0,0.0,0.0,29,0.00,,SCT120,0.00,VWS V14.01,2013-07-30 00:26:00,
2013-07-29 20:32:00,87.8,51.6,30.03,North,0,0.0,0.0,29,0.00,,SCT120,0.00,VWS V14.01,2013-07-30 00:32:00,
2013-07-29 20:37:00,88.2,51.9,30.03,North,0,0.0,0.0,29,0.00,,SCT120,0.00,VWS V14.01,2013-07-30 00:37:00,
2013-07-29 20:42:00,88.2,51.9,30.03,North,0,0.0,0.0,29,0.00,,SCT120,0.00,VWS V14.01,2013-07-30 00:42:00,
2013-07-29 20:47:00,87.8,51.6,30.03,North,0,0.0,0.0,29,0.00,,SCT120,0.00,VWS V14.01,2013-07-30 00:47:00,
2013-07-29 20:52:00,87.4,52.2,30.03,North,0,0.0,0.0,30,0.00,,SCT120,0.00,VWS V14.01,2013-07-30 00:52:00,
2013-07-29 20:57:00,86.9,52.7,30.03,North,0,0.0,0.0,31,0.00,,SCT120,0.00,VWS V14.01,2013-07-30 00:57:00,
2013-07-29 21:02:00,86.5,53.2,30.03,North,0,0.0,0.0,32,0.00,,SCT120,0.00,VWS V14.01,2013-07-30 01:02:00,
2013-07-29 21:07:00,86.2,53.7,30.03,North,0,0.0,0.0,33,0.00,,SCT120,0.00,VWS V14.01,2013-07-30 01:07:00,
2013-07-29 21:12:00,85.8,54.2,30.03,North,0,0.0,0.0,34,0.00,,SCT120,0.00,VWS V14.01,2013-07-30 01:12:00,
2013-07-29 21:17:00,85.8,55.0,30.03,North,0,0.0,0.0,35,0.00,,SCT120,0.00,VWS V14.01,2013-07-30 01:17:00,
2013-07-29 21:22:00,86.0,54.4,30.03,North,0,0.0,0.0,34,0.00,,SCT120,0.00,VWS V14.01,2013-07-30 01:22:00,
2013-07-29 21:27:00,86.0,54.4,30.03,North,0,0.0,0.0,34,0.00,,SCT120,0.00,VWS V14.01,2013-07-30 01:27:00,
2013-07-29 21:32:00,85.5,54.7,30.03,North,0,0.0,0.0,35,0.00,,SCT120,0.00,VWS V14.01,2013-07-30 01:32:00,
2013-07-29 21:38:00,85.5,54.7,30.03,North,0,0.0,0.0,35,0.00,,SCT120,0.00,VWS V14.01,2013-07-30 01:38:00,
2013-07-29 21:43:00,85.5,55.5,30.03,North,0,0.0,0.0,36,0.00,,SCT120,0.00,VWS V14.01,2013-07-30 01:43:00,
2013-07-29 21:48:00,85.5,55.5,30.03,North,0,0.0,0.0,36,0.00,,SCT120,0.00,VWS V14.01,2013-07-30 01:48:00,
2013-07-29 21:53:00,85.6,55.7,30.03,North,0,0.0,0.0,36,0.00,,SCT120,0.00,VWS V14.01,2013-07-30 01:53:00,
2013-07-29 21:58:00,85.3,56.1,30.06,North,0,0.0,0.0,37,0.00,,SCT120,0.00,VWS V14.01,2013-07-30 01:58:00,
2013-07-29 22:03:00,84.6,56.9,30.06,North,0,0.0,0.0,39,0.00,,SCT120,0.00,VWS V14.01,2013-07-30 02:03:00,
2013-07-29 22:08:00,84.4,56.7,30.06,North,0,0.0,0.0,39,0.00,,SCT120,0.00,VWS V14.01,2013-07-30 02:08:00,
2013-07-29 22:13:00,84.0,57.1,30.06,North,0,0.0,0.0,40,0.00,,SCT120,0.00,VWS V14.01,2013-07-30 02:13:00,
2013-07-29 22:18:00,83.8,57.7,30.06,North,0,0.0,0.0,41,0.00,,SCT120,0.00,VWS V14.01,2013-07-30 02:18:00,
2013-07-29 22:23:00,83.8,57.7,30.06,North,0,0.0,0.0,41,0.00,,SCT120,0.00,VWS V14.01,2013-07-30 02:23:00,
2013-07-29 22:29:00,83.8,58.3,30.06,North,0,0.0,0.0,42,0.00,,SCT120,0.00,VWS V14.01,2013-07-30 02:29:00,
2013-07-29 22:34:00,83.7,58.8,30.06,North,0,0.0,0.0,43,0.00,,SCT120,0.00,VWS V14.01,2013-07-30 02:34:00,
2013-07-29 22:39:00,83.7,59.5,30.06,North,0,0.0,0.0,44,0.00,,SCT120,0.00,VWS V14.01,2013-07-30 02:39:00,
2013-07-29 22:44:00,83.7,59.5,30.06,North,0,0.0,0.0,44,0.00,,SCT120,0.00,VWS V14.01,2013-07-30 02:44:00,
2013-07-29 22:49:00,83.7,59.5,30.06,North,0,0.0,0.0,44,0.00,,SCT120,0.00,VWS V14.01,2013-07-30 02:49:00,
2013-07-29 22:54:00,83.3,59.1,30.06,North,0,0.0,0.0,44,0.00,,SCT120,0.00,VWS V14.01,2013-07-30 02:54:00,
2013-07-29 22:59:00,82.9,58.8,30.06,North,0,0.0,0.0,44,0.00,,SCT120,0.00,VWS V14.01,2013-07-30 02:59:00,
2013-07-29 23:04:00,82.6,59.7,30.06,North,0,0.0,0.0,46,0.00,,SCT120,0.00,VWS V14.01,2013-07-30 03:04:00,
2013-07-29 23:09:00,82.2,61.8,30.06,North,0,0.0,0.0,50,0.00,,SCT120,0.00,VWS V14.01,2013-07-30 03:09:00,
2013-07-29 23:14:00,82.0,62.7,30.03,North,0,0.0,0.0,52,0.00,,SCT120,0.00,VWS V14.01,2013-07-30 03:14:00,
2013-07-29 23:19:00,81.9,63.6,30.03,North,0,0.0,0.0,54,0.00,,SCT120,0.00,VWS V14.01,2013-07-30 03:19:00,
2013-07-29 23:24:00,81.9,64.1,30.03,North,0,0.0,0.0,55,0.00,,SCT120,0.00,VWS V14.01,2013-07-30 03:24:00,
2013-07-29 23:30:00,82.0,64.3,30.06,North,0,0.0,0.0,55,0.00,,SCT120,0.00,VWS V14.01,2013-07-30 03:30:00,
2013-07-29 23:35:00,82.0,63.8,30.06,North,0,0.0,0.0,54,0.00,,SCT120,0.00,VWS V14.01,2013-07-30 03:35:00,
2013-07-29 23:40:00,81.9,64.1,30.06,North,0,0.0,0.0,55,0.00,,SCT120,0.00,VWS V14.01,2013-07-30 03:40:00,
2013-07-29 23:45:00,81.7,64.0,30.06,North,0,0.0,0.0,55,0.00,,SCT120,0.00,VWS V14.01,2013-07-30 03:45:00,
2013-07-29 23:50:00,81.7,64.0,30.06,North,0,0.0,0.0,55,0.00,,SCT120,0.00,VWS V14.01,2013-07-30 03:50:00,
2013-07-29 23:55:00,81.7,64.0,30.06,North,0,0.0,0.0,55,0.00,,SCT120,0.00,VWS V14.01,2013-07-30 03:55:00,